DW5536 Weather Reports


time (UTC)temp
C
wind
direction
speed
KPH
gust
KPH
rain 1hr
cm
rain 24hr
cm
rain mn
cm
humidity
%
barometer
mb
20260903025541 24 211 0.0 0.0 0.00 0.00 0.00 87 1017.3
20260903025041 24 211 0.0 0.0 0.00 0.00 0.00 87 1017.2
20260903024041 24 211 0.0 0.0 0.00 0.00 0.00 86 1017.3
20260903023541 25 211 0.0 0.0 0.00 0.00 0.00 86 1017.3
20260903023041 25 211 0.0 0.0 0.00 0.00 0.00 85 1017.3
20260903022541 25 211 0.0 0.0 0.00 0.00 0.00 85 1017.3
20260903022041 25 211 0.0 0.0 0.00 0.00 0.00 86 1017.4
20260903021541 25 211 0.0 0.0 0.00 0.00 0.00 86 1017.3
20260903020540 25 211 0.0 0.0 0.00 0.00 0.00 85 1017.3
20260903020040 25 211 0.0 0.0 0.00 0.00 0.00 84 1017.4
20260903015540 25 211 0.0 0.0 0.00 0.00 0.00 83 1017.3
20260903015040 25 211 0.0 0.0 0.00 0.00 0.00 83 1017.3
20260903014540 26 211 0.0 0.0 0.00 0.00 0.00 83 1017.3
20260903014040 26 211 0.0 0.0 0.00 0.00 0.00 83 1017.3
20260903013040 26 211 0.0 0.0 0.00 0.00 0.00 82 1017.2
20260903012540 26 211 0.0 0.0 0.00 0.00 0.00 81 1017.1
20260903012040 26 211 0.0 0.0 0.00 0.00 0.00 81 1017.1
20260903011540 26 211 0.0 0.0 0.00 0.00 0.00 81 1017.1
20260903011040 27 211 0.0 0.0 0.00 0.00 0.00 80 1017.1
20260903010540 27 211 0.0 0.0 0.00 0.00 0.00 80 1017.0
20260903010040 27 211 0.0 0.0 0.00 0.00 0.00 80 1016.9
20260903005040 27 211 0.0 0.0 0.00 0.00 0.00 78 1016.9
20260903004540 28 211 0.0 0.0 0.00 0.00 0.00 77 1016.8
20260903004040 28 211 0.0 3.2 0.00 0.00 0.00 76 1016.7
20260903003540 28 211 0.0 3.2 0.00 0.00 0.00 74 1016.8
20260903003039 28 211 0.0 0.0 0.00 0.00 0.00 72 1016.8
20260903002540 29 211 0.0 0.0 0.00 0.00 0.00 70 1016.8
20260903002040 29 211 0.0 0.0 0.00 0.00 0.00 69 1016.9
20260903001039 30 211 0.0 0.0 0.00 0.00 0.00 65 1016.8
20260903000539 31 211 0.0 0.0 0.00 0.00 0.00 63 1017.0
20260903000039 31 211 0.0 0.0 0.00 0.00 0.00 62 1017.0
20260902235539 31 211 0.0 0.0 0.00 0.00 0.00 61 1016.6
20260902235039 32 211 0.0 0.0 0.00 0.00 0.00 61 1016.7
20260902234539 32 211 0.0 0.0 0.00 0.00 0.00 59 1016.8
20260902234039 32 211 0.0 6.4 0.00 0.00 0.00 58 1016.9
20260902233039 33 235 0.0 3.2 0.00 0.00 0.00 55 1016.9
20260902232539 33 235 0.0 9.7 0.00 0.00 0.00 54 1016.8
20260902232039 34 199 0.0 9.7 0.00 0.00 0.00 53 1016.8
20260902231539 35 233 0.0 6.4 0.00 0.00 0.00 52 1017.0
20260902231039 35 200 3.2 6.4 0.00 0.00 0.00 50 1017.0
20260902230539 36 226 0.0 12.9 0.00 0.00 0.00 49 1017.0
20260902230039 36 216 6.4 12.9 0.00 0.00 0.00 49 1017.0
20260902225539 36 216 12.9 12.9 0.00 0.00 0.00 46 1016.9
20260902225039 37 221 3.2 12.9 0.00 0.00 0.00 46 1016.9
20260902224539 37 221 3.2 6.4 0.00 0.00 0.00 48 1016.9
20260902224039 37 204 0.0 6.4 0.00 0.00 0.00 46 1017.0
20260902223539 37 235 0.0 6.4 0.00 0.00 0.00 46 1017.0
20260902223039 36 294 0.0 6.4 0.00 0.00 0.00 48 1017.0
20260902222538 36 285 0.0 6.4 0.00 0.00 0.00 46 1017.1
20260902222039 36 234 0.0 16.1 0.00 0.00 0.00 47 1017.1
20260902221038 36 185 0.0 12.9 0.00 0.00 0.00 47 1017.2
20260902220038 37 258 0.0 9.7 0.00 0.00 0.00 47 1017.3
20260902215538 37 203 6.4 9.7 0.00 0.00 0.00 46 1017.3
20260902215038 36 253 3.2 9.7 0.00 0.00 0.00 46 1017.3
20260902214538 36 273 0.0 12.9 0.00 0.00 0.00 47 1017.3
20260902214038 37 199 3.2 12.9 0.00 0.00 0.00 47 1017.4
20260902213538 37 214 0.0 9.7 0.00 0.00 0.00 47 1017.4
20260902212538 36 326 0.0 12.9 0.00 0.00 0.00 47 1017.4
20260902212038 36 218 3.2 16.1 0.00 0.00 0.00 46 1017.5
20260902210038 37 204 9.7 12.9 0.00 0.00 0.00 47 1017.5
20260902205037 37 247 3.2 16.1 0.00 0.00 0.00 48 1017.6
20260902204538 37 207 12.9 16.1 0.00 0.00 0.00 48 1017.6
20260902203538 36 247 0.0 6.4 0.00 0.00 0.00 49 1017.6
20260902203038 36 255 0.0 6.4 0.00 0.00 0.00 48 1017.7
20260902202537 36 207 0.0 12.9 0.00 0.00 0.00 48 1017.8
20260902201537 37 136 0.0 12.9 0.00 0.00 0.00 47 1017.8
20260902201037 37 278 3.2 19.3 0.00 0.00 0.00 47 1017.9
20260902200537 37 256 0.0 19.3 0.00 0.00 0.00 48 1017.9
20260902200037 37 150 0.0 6.4 0.00 0.00 0.00 49 1017.9
20260902195537 36 265 3.2 12.9 0.00 0.00 0.00 49 1017.9
20260902194537 36 213 6.4 9.7 0.00 0.00 0.00 52 1018.0
20260902194037 36 247 3.2 9.7 0.00 0.00 0.00 51 1018.1
20260902193537 36 207 0.0 12.9 0.00 0.00 0.00 49 1018.1
20260902193037 36 269 3.2 16.1 0.00 0.00 0.00 50 1018.2
20260902192537 36 235 6.4 16.1 0.00 0.00 0.00 48 1018.3
20260902192037 36 342 6.4 12.9 0.00 0.00 0.00 47 1018.3
20260902191037 36 218 0.0 16.1 0.00 0.00 0.00 45 1018.4
20260902190537 36 278 3.2 16.1 0.00 0.00 0.00 46 1018.4
20260902190037 36 11 3.2 12.9 0.00 0.00 0.00 50 1018.4
20260902185537 36 352 6.4 12.9 0.00 0.00 0.00 49 1018.6
20260902185037 36 242 3.2 12.9 0.00 0.00 0.00 49 1018.6
20260902184537 36 199 0.0 19.3 0.00 0.00 0.00 50 1018.6
20260902184037 36 231 3.2 19.3 0.00 0.00 0.00 50 1018.6
20260902183537 36 228 12.9 19.3 0.00 0.00 0.00 50 1018.7
20260902183036 36 248 3.2 12.9 0.00 0.00 0.00 50 1018.6
20260902182536 36 328 0.0 16.1 0.00 0.00 0.00 49 1018.7
20260902181036 36 206 3.2 16.1 0.00 0.00 0.00 51 1018.7
20260902180036 36 226 6.4 25.7 0.00 0.00 0.00 51 1018.8
20260902175536 36 333 0.0 25.7 0.00 0.00 0.00 49 1018.9
20260902175037 36 212 0.0 16.1 0.00 0.00 0.00 52 1018.9
20260902174536 36 197 9.7 16.1 0.00 0.00 0.00 51 1019.0
20260902174036 36 242 3.2 9.7 0.00 0.00 0.00 51 1019.1
20260902173536 35 218 6.4 16.1 0.00 0.00 0.00 51 1019.0
20260902173036 35 269 3.2 16.1 0.00 0.00 0.00 53 1019.0
20260902172536 35 274 3.2 22.5 0.00 0.00 0.00 55 1019.1
20260902172036 35 217 3.2 22.5 0.00 0.00 0.00 54 1019.1
20260902171536 35 195 16.1 22.5 0.00 0.00 0.00 55 1019.4
20260902171036 35 187 0.0 16.1 0.00 0.00 0.00 53 1019.4
20260902170536 35 266 3.2 16.1 0.00 0.00 0.00 55 1019.5
20260902170036 35 199 6.4 9.7 0.00 0.00 0.00 55 1019.6
20260902165536 35 46 0.0 9.7 0.00 0.00 0.00 56 1019.6
20260902165036 35 8 9.7 9.7 0.00 0.00 0.00 55 1019.6
20260902164536 35 242 0.0 9.7 0.00 0.00 0.00 55 1019.7
20260902164036 35 351 0.0 19.3 0.00 0.00 0.00 54 1019.7
20260902163536 35 143 3.2 19.3 0.00 0.00 0.00 56 1019.8
20260902162536 35 293 3.2 9.7 0.00 0.00 0.00 55 1019.9
20260902162036 34 240 0.0 12.9 0.00 0.00 0.00 58 1020.0
20260902161536 34 256 6.4 12.9 0.00 0.00 0.00 57 1020.0
20260902161036 34 261 6.4 12.9 0.00 0.00 0.00 58 1020.0
20260902160535 34 358 6.4 12.9 0.00 0.00 0.00 60 1020.0
20260902160035 33 263 0.0 19.3 0.00 0.00 0.00 62 1020.0
20260902155536 33 192 0.0 19.3 0.00 0.00 0.00 62 1020.1
20260902155035 33 255 0.0 9.7 0.00 0.00 0.00 63 1020.0
20260902154535 32 199 6.4 12.9 0.00 0.00 0.00 65 1019.9
20260902153535 32 207 6.4 12.9 0.00 0.00 0.00 67 1020.0
20260902152535 31 204 6.4 9.7 0.00 0.00 0.00 68 1020.0
20260902152035 31 248 6.4 9.7 0.00 0.00 0.00 68 1020.0
20260902151535 31 197 3.2 9.7 0.00 0.00 0.00 69 1020.1
20260902151035 31 226 3.2 9.7 0.00 0.00 0.00 68 1020.1
20260902150035 31 13 3.2 6.4 0.00 0.00 0.00 71 1020.0
20260902145535 30 19 3.2 9.7 0.00 0.00 0.00 70 1019.9
20260902145035 30 272 0.0 9.7 0.00 0.00 0.00 70 1020.0
20260902144535 30 252 0.0 9.7 0.00 0.00 0.00 71 1020.0
20260902143535 30 263 0.0 9.7 0.00 0.00 0.00 69 1020.0
20260902143035 30 227 3.2 9.7 0.00 0.00 0.00 70 1019.9
20260902142535 30 202 6.4 12.9 0.00 0.00 0.00 70 1019.9
20260902141534 30 247 0.0 3.2 0.00 0.00 0.00 71 1019.9
20260902141035 30 210 0.0 0.0 0.00 0.00 0.00 71 1019.9
20260902140534 30 218 0.0 0.0 0.00 0.00 0.00 70 1020.0
20260902140034 30 210 0.0 0.0 0.00 0.00 0.00 71 1020.0
20260902135534 30 210 0.0 0.0 0.00 0.00 0.00 71 1020.0
20260902135034 30 218 0.0 0.0 0.00 0.00 0.00 72 1019.9
20260902134034 30 207 0.0 0.0 0.00 0.00 0.00 72 1020.0
20260902133534 29 214 0.0 0.0 0.00 0.00 0.00 73 1020.0
20260902133034 29 214 0.0 0.0 0.00 0.00 0.00 74 1020.1
20260902132534 28 214 0.0 0.0 0.00 0.00 0.00 75 1020.0
20260902132034 28 207 0.0 0.0 0.00 0.00 0.00 79 1019.9
20260902131034 27 217 0.0 0.0 0.00 0.00 0.00 79 1019.9
20260902130034 26 203 0.0 0.0 0.00 0.00 0.00 82 1019.9
20260902124534 25 203 0.0 0.0 0.00 0.00 0.00 94 1019.8
20260902124033 25 203 0.0 0.0 0.00 0.00 0.00 95 1019.7
20260902123034 23 203 0.0 0.0 0.00 0.00 0.00 95 1019.7
20260902122534 22 203 0.0 0.0 0.00 0.00 0.00 95 1019.6
20260902122034 22 203 0.0 0.0 0.00 0.00 0.00 95 1019.6
20260902121533 21 203 0.0 0.0 0.00 0.00 0.00 95 1019.5
20260902121033 21 203 0.0 0.0 0.00 0.00 0.00 95 1019.4
20260902120533 20 202 0.0 0.0 0.00 0.00 0.00 95 1019.3
20260902120033 20 202 0.0 0.0 0.00 0.00 0.00 95 1019.3
20260902114533 20 202 0.0 0.0 0.00 0.00 0.00 94 1019.4
20260902114033 20 202 0.0 0.0 0.00 0.00 0.00 94 1019.3
20260902113533 20 202 0.0 0.0 0.00 0.00 0.00 94 1019.2
20260902113033 20 202 0.0 0.0 0.00 0.00 0.00 94 1019.2
20260902112533 20 202 0.0 0.0 0.00 0.00 0.00 94 1019.3
20260902111533 20 202 0.0 0.0 0.00 0.00 0.00 94 1019.1
20260902111033 20 202 0.0 0.0 0.00 0.00 0.00 94 1019.1
20260902110533 20 202 0.0 0.0 0.00 0.00 0.00 94 1019.1
20260902110033 20 202 0.0 0.0 0.00 0.00 0.00 94 1019.0
20260902104533 20 202 0.0 0.0 0.00 0.00 0.00 94 1019.2
20260902104033 20 202 0.0 0.0 0.00 0.00 0.00 94 1019.1
20260902103532 20 202 0.0 0.0 0.00 0.00 0.00 94 1019.0
20260902103033 20 202 0.0 0.0 0.00 0.00 0.00 94 1019.0
20260902102532 20 202 0.0 0.0 0.00 0.00 0.00 94 1018.9
20260902102032 20 202 0.0 0.0 0.00 0.00 0.00 94 1018.9
20260902101032 20 202 0.0 0.0 0.00 0.00 0.00 94 1018.9
20260902100532 20 202 0.0 0.0 0.00 0.00 0.00 94 1018.9
20260902095532 20 202 0.0 0.0 0.00 0.00 0.00 94 1018.8
20260902095032 20 202 0.0 0.0 0.00 0.00 0.00 94 1018.8
20260902094032 20 202 0.0 0.0 0.00 0.00 0.00 94 1018.6
20260902093532 20 202 0.0 0.0 0.00 0.00 0.00 94 1018.6
20260902093032 20 202 0.0 0.0 0.00 0.00 0.00 94 1018.6
20260902092532 20 202 0.0 0.0 0.00 0.00 0.00 94 1018.6
20260902091532 20 202 0.0 0.0 0.00 0.00 0.00 94 1018.5
20260902091032 20 202 0.0 0.0 0.00 0.00 0.00 94 1018.6
20260902090532 20 202 0.0 0.0 0.00 0.00 0.00 94 1018.6
20260902090032 20 202 0.0 0.0 0.00 0.00 0.00 94 1018.6
20260902085532 20 202 0.0 0.0 0.00 0.00 0.00 94 1018.7
20260902084032 21 202 0.0 0.0 0.00 0.00 0.00 94 1018.5
20260902083532 20 202 0.0 0.0 0.00 0.00 0.00 94 1018.6
20260902083032 20 202 0.0 0.0 0.00 0.00 0.00 94 1018.6
20260902082532 20 202 0.0 0.0 0.00 0.00 0.00 94 1018.5
20260902082032 20 202 0.0 0.0 0.00 0.00 0.00 94 1018.6
20260902081532 20 202 0.0 0.0 0.00 0.00 0.00 94 1018.6
20260902081032 20 202 0.0 0.0 0.00 0.00 0.00 94 1018.6
20260902080531 20 202 0.0 0.0 0.00 0.00 0.00 94 1018.5
20260902080031 20 202 0.0 0.0 0.00 0.00 0.00 94 1018.5
20260902075531 20 202 0.0 0.0 0.00 0.00 0.00 94 1018.3
20260902075031 20 202 0.0 0.0 0.00 0.00 0.00 94 1018.3
20260902074532 21 202 0.0 0.0 0.00 0.00 0.00 94 1018.4
20260902074031 21 202 0.0 0.0 0.00 0.00 0.00 94 1018.4
20260902073031 21 202 0.0 0.0 0.00 0.00 0.00 94 1018.4
20260902072531 21 202 0.0 0.0 0.00 0.00 0.00 94 1018.4
20260902072031 21 202 0.0 0.0 0.00 0.00 0.00 94 1018.3
20260902071031 21 202 0.0 0.0 0.00 0.00 0.00 94 1018.3
20260902070531 21 202 0.0 0.0 0.00 0.00 0.00 94 1018.3
20260902065531 21 202 0.0 0.0 0.00 0.00 0.00 94 1018.3
20260902065031 21 202 0.0 0.0 0.00 0.00 0.00 94 1018.3
20260902064531 21 202 0.0 0.0 0.00 0.00 0.00 94 1018.2
20260902064031 21 202 0.0 0.0 0.00 0.00 0.00 94 1018.3
20260902063531 21 202 0.0 0.0 0.00 0.00 0.00 94 1018.5
20260902063031 21 202 0.0 0.0 0.00 0.00 0.00 93 1018.5
20260902062531 21 202 0.0 0.0 0.00 0.00 0.00 93 1018.5
20260902061031 21 202 0.0 0.0 0.00 0.00 0.00 93 1018.5
20260902060531 21 202 0.0 0.0 0.00 0.00 0.00 93 1018.6
20260902060031 21 202 0.0 0.0 0.00 0.00 0.00 93 1018.6
20260902055031 21 202 0.0 0.0 0.00 0.00 0.00 93 1018.7
20260902054531 21 202 0.0 0.0 0.00 0.00 0.00 93 1018.7
20260902054031 21 202 0.0 0.0 0.00 0.00 0.00 93 1018.6
20260902053531 21 202 0.0 0.0 0.00 0.00 0.00 93 1018.6
20260902053031 21 202 0.0 0.0 0.00 0.00 0.00 93 1018.6
20260902052031 22 203 0.0 0.0 0.00 0.00 0.00 93 1018.6
20260902051030 22 202 0.0 0.0 0.00 0.00 0.00 93 1018.6
20260902050531 22 203 0.0 0.0 0.00 0.00 0.00 93 1018.5
20260902050030 22 203 0.0 0.0 0.00 0.00 0.00 93 1018.5
20260902045530 22 203 0.0 0.0 0.00 0.00 0.00 93 1018.5
20260902045030 22 203 0.0 0.0 0.00 0.00 0.00 93 1018.5
20260902044530 22 203 0.0 0.0 0.00 0.00 0.00 93 1018.4
20260902043530 22 203 0.0 0.0 0.00 0.00 0.00 93 1018.4
20260902043030 22 203 0.0 0.0 0.00 0.00 0.00 92 1018.4
20260902042530 22 203 0.0 0.0 0.00 0.00 0.00 92 1018.3
20260902042030 22 203 0.0 0.0 0.00 0.00 0.00 92 1018.4
20260902041530 22 203 0.0 0.0 0.00 0.00 0.00 92 1018.4
20260902041030 22 203 0.0 0.0 0.00 0.00 0.00 92 1018.4
20260902040530 22 203 0.0 0.0 0.00 0.00 0.00 92 1018.4
20260902040030 22 203 0.0 0.0 0.00 0.00 0.00 92 1018.5
20260902035530 22 203 0.0 0.0 0.00 0.00 0.00 92 1018.4
20260902035030 22 204 0.0 0.0 0.00 0.00 0.00 92 1018.4
20260902034530 22 203 0.0 0.0 0.00 0.00 0.00 92 1018.4
20260902033529 23 203 0.0 0.0 0.00 0.00 0.00 91 1018.4
20260902033029 23 203 0.0 0.0 0.00 0.00 0.00 91 1018.5
20260902032529 23 204 0.0 0.0 0.00 0.00 0.00 91 1018.4
20260902032029 23 203 0.0 0.0 0.00 0.00 0.00 91 1018.4
20260902031530 23 203 0.0 0.0 0.00 0.00 0.00 91 1018.4
20260902031029 23 204 0.0 0.0 0.00 0.00 0.00 90 1018.4
20260902030529 23 203 0.0 0.0 0.00 0.00 0.00 90 1018.5